Powrót do katalogu

STARLINK-37507

AktywnyŁącznośćSSO
NORAD 68916·PAYLOAD·🇺🇸 United States

Wystrzelony Apr 30, 2026 z Vandenberg Space Force Base

Loading…

Następne Przeloty (najbliższe 24 godziny)

TLE

ŚwieżeSource: CelesTrak SupGP

Epoka: Sep 15, 2026, 03:07 UTC

1 68916C 26097X   26258.13034722 -.00038463  00000+0 -11940-2 0  2589
2 68916  97.2856  92.3992 0001662  90.6529 215.3629 15.33457729    14

Śledź STARLINK-37507 w czasie rzeczywistym z AllMySat

Download on the App Store